Regional Weather Roundup
Issued by NWS

Home | Current Version | Previous Version | Graphics & Text | Print | Product List | Glossary On
Versions: 1 2 3 4 5 6 7 8 9 10 11 12 13 14 15 16 17 18 19 20 21 22 23 24 25 26 27 28 29 30 31 32 33 34 35 36 37 38 39 40 41 42 43 44 45 46 47 48 49 50
000
ASUS45 KBOU 011407
RWRCO

WEATHER ROUNDUP FOR COLORADO
NATIONAL WEATHER SERVICE DENVER/BOULDER CO
800 AM MDT WED APR 01 2015

NOTE: "FAIR" INDICATES FEW OR NO CLOUDS BELOW 12000 FEET WITH NO
SIGNIFICANT WEATHER AND/OR OBSTRUCTIONS TO VISIBILITY.

COZ001>005-013-030-031-011500-
...NORTHWEST COLORADO...

CITY           SKY/WX    TMP DP  RH WIND       PRES   REMARKS
CRAIG          CLOUDY    46  29  51 CALM      29.90R
HAYDEN         PTSUNNY   45  23  42 NW5       29.89R
MEEKER         CLOUDY    45  28  51 CALM      29.89R
MOUNT WERNER   NOT AVBL
STEAMBOAT SPGS CLOUDY    45  27  50 NW3       29.89R
WALDEN         PTSUNNY   41  23  48 SW9       29.90S
$$

COZ006>008-011-011500-
...WEST CENTRAL VALLEYS...

CITY           SKY/WX    TMP DP  RH WIND       PRES   REMARKS
GRAND JUNCTION MOSUNNY   51  23  33 E7        29.84R
MONTROSE       MOSUNNY   51  24  34 S14       29.92R
EAGLE          MOSUNNY   36  25  64 CALM      29.95R
RIFLE          PTSUNNY   42  26  53 E5        29.87S
DELTA          MOSUNNY   52  26  35 E5        29.90R
NUCLA          MOSUNNY   52  23  32 SW10      29.97R
$$

COZ017>023-064>068-011500-
...SOUTHWEST COLORADO...

CITY           SKY/WX    TMP DP  RH WIND       PRES   REMARKS
DURANGO        SUNNY     40  27  59 E3        30.01R
CORTEZ         SUNNY     48  28  46 E3        29.98R
PAGOSA SPRINGS SUNNY     40  25  53 NE3       30.05R
TELLURIDE      MOSUNNY   43  22  43 SE5       30.09
WOLF CREEK PAS SUNNY     28  19  69 SW22G29   30.17R WCI  15
$$

COZ009-010-012-014-032>034-037-058>063-011500-
...CENTRAL COLORADO...

CITY           SKY/WX    TMP DP  RH WIND       PRES   REMARKS
ASPEN          MOSUNNY   47  23  38 VRB6      29.94R
BUENA VISTA    SUNNY     46  21  37 W7        29.94S
COPPER MTN     MOSUNNY   34  14  44 W24G33    30.07R WCI  21
BERTHOUD PASS  FAIR      28  21  74 MISG      30.03F
COTTONWOOD PAS SUNNY     45  14  29 W14G25    30.00R
GUNNISON       MOSUNNY   30  23  74 NE3       30.03S
KREMMLING      MOSUNNY   32  27  80 CALM      29.94R
LEADVILLE      NOT AVBL
SALIDA         SUNNY     53  20  27 SW13      30.01R
SUNLIGHT       CLOUDY    37  23  56 CALM      30.07F
WILKERSON PASS MOSUNNY   32  18  55 SW14G24   30.06R WCI  22
$$

COZ069>075-011500-
...SAN LUIS VALLEY/SANGRE DE CRISTO MOUNTAINS...

CITY           SKY/WX    TMP DP  RH WIND       PRES   REMARKS
ALAMOSA        PTSUNNY   39  23  52 SE3       29.99R
LA VETA PASS   PTSUNNY   32  19  59 SW10G18   30.02F WCI  24
SAGUACHE       NOT AVBL
$$

COZ035-036-038>040-011500-
...NORTHERN COLORADO FRONT RANGE...

CITY           SKY/WX    TMP DP  RH WIND       PRES   REMARKS
DENVER INTL AP CLOUDY    53  27  36 W7        29.78R
DMNS CITY PARK   N/A     57  22  26 S7        29.78S
AURORA         PTSUNNY   53  25  34 S8        29.80R
FRONT RANGE AP PTSUNNY   57  27  30 SW8       29.79R
ERIE MUNI ARPT CLOUDY    60  22  23 SW5       29.75S
BOULDER MUN AP CLOUDY    55  27  33 W5        29.76R
CENTENNIAL     CLOUDY    56  22  26 S15       29.80R
BROOMFIELD     PTSUNNY   54  21  28 CALM      29.79
FORT COLLINS   CLOUDY    50  28  43 E3        29.76R
LONGMONT       CLOUDY    67  20  16 SW17G26   29.75S
$$

COZ041-046-047-076>085-087-088-011500-
...PIKES PEAK/PALMER DIVIDE AND SOUTHERN FOOTHILLS...

CITY           SKY/WX    TMP DP  RH WIND       PRES   REMARKS
COLO. SPRINGS  CLOUDY    51  24  34 N10       29.86R
A. F. ACADEMY  PTSUNNY   54  20  26 N7        29.86R
ELLICOTT       NOT AVBL
FALCON         CLOUDY    55  20  25 W12       29.88S
FORT CARSON    PTSUNNY   53  24  33 SW8       29.82S
LIMON          PTSUNNY   45  29  53 N6        29.79R
MONUMENT HILL  CLOUDY    50  21  32 SW9       29.87S
TRINIDAD       PTSUNNY   54  24  31 W10       29.86R
$$

COZ042>045-048>051-090-091-011500-
...NORTHEAST COLORADO...

CITY           SKY/WX    TMP DP  RH WIND       PRES   REMARKS
GREELEY ARPT   CLOUDY    43  21  42 NW7       29.74R
AKRON          CLOUDY    52  26  36 W13       29.72R
BURLINGTON     SUNNY     58  34  40 SW12      29.73R
WRAY           SUNNY     54  34  45 SW7       29.68R
STERLING       CLOUDY    45  30  57 SW5       29.69S
HOLYOKE        NOT AVBL
FORT MORGAN    CLOUDY    46  28  50 W3        29.73R
$$

COZ086-089-092>099-011500-
...SOUTHEAST COLORADO...

CITY           SKY/WX    TMP DP  RH WIND       PRES   REMARKS
PUEBLO         PTSUNNY   49  30  48 W6        29.79R
LA JUNTA       MOSUNNY   53  25  33 W6        29.77R
LAMAR          SUNNY     48  33  56 NW3       29.74R
SPRINGFIELD      N/A     60  27  28 SW8       29.78R
$$



USA.gov is the U.S. government's official web portal to all federal, state and local government web resources and services.